Content
SEND FEEDBACK

Daily
Averages
Monthly
Summary
United States of America

MERIZO, GUAM


Home > North America > United States > Guam
Elevation: 10 feet     Latitude: 13 14N     Longitude: 144 39E

WEATHER
 
SELECT A DAY
Number of Records: 342,038;   Date Range: 1/1/95 - 7/29/14
 
SHARE

PRINT THIS DATA

[ ← Previous Day ]
WEATHER ALMANAC - JANUARY 25, 2013
[ Next Day → ]
[ °C ]   °F
Weather ElementAverageHighLow
Temperature77.9 °F84.2 °F (3:22 pm)73.4 °F (5:55 am)
Dewpoint68.8 °F71.6 °F (3:05 pm)61.5 °F (2:55 am)
Humidity73.7 %89 % (11:12 pm)61 % (2:55 am)
Barometer29.85 in29.91 in (8:55 am)29.81 in (1:55 pm)
Wind Speed13.6 mph18.4 mph (6:55 pm)
Weather ElementAverage
Visibility10 mi
Wind DirectionNE (42.9 °)

Weather ElementTotal
Precipitation---
Cooling Degree Days13.8 (Base 65)
Growing Degree Days28.8 (Base 50)
Averaged from 63 records on January 25, 2013
WEATHER CONDITIONS BREAKOUT
WIND DIRECTION BREAKOUT
WEATHER BY HOUR - JANUARY 25, 2013
[ °C ]   °F
Local TimeTemperatureDewpointHumidityBarometerVisibilityWind DirectionWind SpeedGust SpeedPrecipitationEventsConditions
12:53 AM77.0 °F66.2 °F69 %29.87 in10.0 miNorth (10°)11.5 mphOvercast
12:55 AM76.8 °F66.4 °F70 %29.87 in10.0 miNorth (10°)11.5 mphOvercast
12:56 AM77.0 °F66.2 °F69 %29.87 in10.0 miNorth (10°)12.7 mphOvercast
1:05 AM77.0 °F66.2 °F69 %29.87 in10.0 miNNE (20°)11.5 mphOvercast
1:06 AM77.0 °F66.2 °F69 %29.87 in10.0 miNNE (20°)11.5 mphOvercast
1:08 AM77.0 °F66.2 °F69 %29.87 in10.0 miNorth (10°)11.5 mphOvercast
1:55 AM76.1 °F62.6 °F63 %29.87 in10.0 miNorth (360°)8.1 mphMostly Cloudy
2:55 AM75.7 °F61.5 °F61 %29.86 in10.0 miNNE (20°)12.7 mphMostly Cloudy
3:55 AM75.0 °F63.5 °F67 %29.85 in10.0 miNNE (20°)8.1 mphClear
4:55 AM74.8 °F66.0 °F74 %29.86 in10.0 miNorth (10°)10.4 mphClear
5:55 AM73.4 °F66.0 °F78 %29.87 in10.0 miNNE (20°)6.9 mphClear
6:55 AM75.0 °F66.6 °F75 %29.88 in10.0 miNorth (10°)6.9 mphScattered Clouds
7:55 AM77.0 °F64.2 °F65 %29.89 in10.0 miNNE (20°)8.1 mphOvercast
8:55 AM79.0 °F67.5 °F68 %29.91 in10.0 miNE (40°)12.7 mphMostly Cloudy
9:55 AM79.2 °F68.5 °F70 %29.91 in10.0 miNE (40°)15.0 mphMostly Cloudy
10:55 AM80.2 °F69.8 °F70 %29.89 in10.0 miNE (40°)11.5 mphScattered Clouds
11:55 AM80.6 °F67.5 °F64 %29.87 in10.0 miNorth (10°)12.7 mphOvercast
11:58 AM78.8 °F68.0 °F69 %29.87 in10.0 miNorth (350°)10.4 mphRainLight Rain
12:08 PM80.6 °F68.0 °F65 %29.87 in10.0 miNNE (20°)8.1 mphMostly Cloudy
12:55 PM79.2 °F70.3 °F74 %29.85 in10.0 miNorth (10°)9.2 mph0.00 inMostly Cloudy
1:37 PM80.6 °F69.8 °F70 %29.82 in10.0 miNNE (20°)16.1 mphMostly Cloudy
1:42 PM80.6 °F69.8 °F70 %29.82 in10.0 miNNE (30°)17.3 mphMostly Cloudy
1:55 PM81.5 °F70.3 °F69 %29.81 in10.0 miNNE (30°)15.0 mphScattered Clouds
2:55 PM80.4 °F70.9 °F73 %29.81 in10.0 miNNE (20°)17.3 mphScattered Clouds
3:05 PM82.4 °F71.6 °F70 %29.81 in10.0 miNNE (30°)13.8 mphMostly Cloudy
3:22 PM84.2 °F69.8 °F62 %29.81 in10.0 miNNE (20°)15.0 mphMostly Cloudy
3:31 PM82.4 °F69.8 °F66 %29.81 in10.0 miNNE (20°)11.5 mphMostly Cloudy
3:41 PM82.4 °F69.8 °F66 %29.81 in10.0 miNorth (10°)10.4 mphMostly Cloudy
3:55 PM79.5 °F71.2 °F76 %29.81 in10.0 miNNE (20°)9.2 mphMostly Cloudy
4:01 PM78.8 °F71.6 °F78 %29.81 in10.0 miNNE (30°)9.2 mphMostly Cloudy
4:06 PM78.8 °F71.6 °F78 %29.81 in10.0 miNE (50°)13.8 mphLight Drizzle
4:08 PM78.8 °F69.8 °F74 %29.81 in10.0 miNE (50°)15.0 mphLight Drizzle
4:09 PM78.8 °F69.8 °F74 %29.81 in10.0 miNE (50°)15.0 mphLight Drizzle
4:14 PM78.8 °F69.8 °F74 %29.81 in10.0 miENE (60°)15.0 mphLight Drizzle
4:16 PM78.8 °F69.8 °F74 %29.81 in10.0 miENE (60°)17.3 mphMostly Cloudy
4:55 PM79.0 °F70.0 °F74 %29.82 in10.0 miNE (50°)17.3 mph0.00 inMostly Cloudy
5:16 PM78.8 °F69.8 °F74 %29.82 in10.0 miNE (40°)16.1 mphOvercast
5:21 PM78.8 °F69.8 °F74 %29.83 in10.0 miNE (50°)15.0 mphOvercast
5:36 PM78.8 °F69.8 °F74 %29.83 in10.0 miNE (40°)13.8 mphMostly Cloudy
5:45 PM78.8 °F71.6 °F78 %29.83 in10.0 miNE (40°)16.1 mphMostly Cloudy
5:55 PM77.7 °F70.5 °F78 %29.83 in10.0 miNNE (30°)17.3 mphMostly Cloudy
6:36 PM77.0 °F69.8 °F78 %29.83 in10.0 miNE (40°)17.3 mphScattered Clouds
6:55 PM76.8 °F69.6 °F78 %29.84 in10.0 miNE (50°)18.4 mphPartly Cloudy
7:32 PM77.0 °F69.8 °F78 %29.85 in10.0 miNE (40°)17.3 mphMostly Cloudy
7:55 PM77.0 °F70.3 °F80 %29.85 in10.0 miNE (40°)17.3 mphMostly Cloudy
8:55 PM76.5 °F69.6 °F79 %29.87 in10.0 miNE (40°)18.4 mphOvercast
9:11 PM77.0 °F69.8 °F78 %29.87 in10.0 miNE (40°)16.1 mphMostly Cloudy
9:19 PM77.0 °F69.8 °F78 %29.88 in10.0 miNE (40°)18.4 mphMostly Cloudy
9:55 PM76.5 °F69.4 °F79 %29.88 in10.0 miNNE (30°)15.0 mphOvercast
10:10 PM77.0 °F69.8 °F78 %29.88 in10.0 miNNE (30°)16.1 mphOvercast
10:19 PM77.0 °F69.8 °F78 %29.88 in10.0 miNE (40°)13.8 mphOvercast
10:36 PM77.0 °F68.0 °F74 %29.88 in10.0 miNE (40°)15.0 mphOvercast
10:40 PM77.0 °F69.8 °F78 %29.88 in10.0 miNE (40°)16.1 mphOvercast
10:55 PM76.8 °F69.3 °F77 %29.88 in10.0 miNE (40°)15.0 mphOvercast
10:59 PM77.0 °F69.8 °F78 %29.88 in10.0 miNE (50°)12.7 mphRainLight Rain
11:10 PM75.2 °F69.8 °F83 %29.88 in10.0 miNE (50°)15.0 mphOvercast
11:12 PM75.2 °F71.6 °F89 %29.88 in10.0 miNE (40°)12.7 mphLight Drizzle
11:23 PM75.2 °F69.8 °F83 %29.88 in10.0 miNE (50°)15.0 mphMostly Cloudy
11:32 PM75.2 °F69.8 °F83 %29.88 in10.0 miNE (40°)15.0 mphMostly Cloudy
11:42 PM75.2 °F69.8 °F83 %29.87 in10.0 miNE (40°)11.5 mphMostly Cloudy
11:55 PM75.7 °F68.5 °F78 %29.87 in10.0 miNE (40°)12.7 mph0.00 inOvercast
11:56 PM75.2 °F68.0 °F78 %29.87 in10.0 miNE (40°)12.7 mphMostly Cloudy
11:58 PM77.0 °F68.0 °F74 %29.88 in10.0 miNE (40°)15.0 mphMostly Cloudy
Hourly data recorded from PGUA, located miles away from Merizo, Guam







STORIES FROM OUR PARTNERS